User: anonymous   Login
Location: Unspecified
(0.0000°N, 0.0000°E)
Time: 14:49:41
(UTC+00:00)
Language:

Orbcomm A3 (FM07) - Orbit

View from above orbital plane
View from above orbital plane
View from above satellite
View from above satellite

Ground track
Ground track

The orbit data is extracted from the following two-line orbital elements,

1 25119U 97084H   17206.02109304 +.00000032 +00000-0 +56712-4 0  9991
2 25119 045.0172 048.8174 0004188 108.4837 251.6467 14.38570235025739
Epoch (UTC): 25 July 2017 00:30:22
Eccentricity: 0.0004188
inclination: 45.0172°
perigee height: 760 km
apogee height: 766 km
right ascension of ascending node: 48.8174°
argument of perigee: 108.4837°
revolutions per day: 14.38570235
mean anomaly at epoch: 251.6467°
orbit number at epoch: 2573

The dashed part of the orbit path shows where the satellite is in the earth's shadow,  

DLR